Location: Glencliff
(36.1226°N, 86.7183°W)
Time: 15:56:19
(UTC+00:00)

Delta 168 - Pass Details

Date: 25 August 2019
Orbit: 394 x 2054 km, 25.3° (Epoch: 22 September)

Event Time Altitude Azimuth Distance (km) Brightness Sun altitude
Exits shadow 10:11:15 13° 203° (SSW) 1,409 4.5 -12.6°
Maximum altitude 10:12:46 16° 173° (S) 1,327 4.6 -12.3°
Drops below altitude 10° 10:15:21 10° 134° (SE) 1,839 5.8 -11.8°
Sets 10:18:45 0° 113° (ESE) 3,026 7.3 -11.2°
